Weather History for Thermopolis, WY

Change the Weather History Date:

Friday, November 9, 2012

  Actual Average (KWRL) Record (KWRL)
Temperature  
Mean Temperature 32 °F 35 °F  
Max Temperature 41 °F 49 °F 67 °F (1964)
Min Temperature 23 °F 21 °F -11 °F (1966)
Degree Days  
Heating Degree Days 33 30  
Month to date heating degree days 254  
Since 1 July heating degree days 1116  
Cooling Degree Days 0 0  
Month to date cooling degree days 0  
Year to date cooling degree days 535  
Moisture  
Dew Point 22 °F    
Average Humidity 67    
Maximum Humidity 93    
Minimum Humidity 45    
Precipitation  
Precipitation 0.00 in 0.02 in 0.47 in (1992)
Month to date precipitation 0.12  
Year to date precipitation 7.11  
Sea Level Pressure  
Sea Level Pressure 29.66 in    
Wind  
Wind Speed 19 mph ()    
Max Wind Speed 32 mph    
Max Gust Speed 36 mph    
Visibility 8.7 miles    
Events Fog , Snow    
T = Trace of Precipitation, MM = Missing Value Source: Averaged Metar Reports

Daily Weather History Graph

Daily Weather History Graph

Search for Another Location

Airport:

Trip Planner

Search our weather history database for the weather conditions in past years. The results will help you decide how hot, cold, wet, or windy it might be!

Date:

Astronomy

Nov. 09, 2012 Rise Set
Actual Time 6:59 AM MST 4:53 PM MST
Civil Twilight 6:29 AM MST 5:24 PM MST
Nautical Twilight 5:54 AM MST 5:58 PM MST
Astronomical Twilight 5:21 AM MST 6:31 PM MST
Moon 1:53 AM MST (11/9) 2:15 PM MST (11/9)
Length of Visible Light 10h 54m
Length of Day
9h 54m
Waning Crescent, 22% of the Moon is Illuminated
Nov 9
Waning Crescent
Nov 13
New
Nov 20
First Quarter
Nov 28
Full
Dec 6
Last Quarter

Hourly Weather History & Observations

Time (MST) Temp. Windchill Dew Point Humidity Pressure Visibility Wind Dir Wind Speed Gust Speed Precip Events Conditions
12:15 AM 41.0 °F 32.5 °F 23.0 °F 49% 29.73 in 10.0 mi ESE 17.3 mph - N/A   Clear
12:35 AM 41.0 °F 31.4 °F 23.0 °F 49% 29.73 in 10.0 mi ESE 21.9 mph - N/A   Clear
12:55 AM 41.0 °F 31.6 °F 21.2 °F 45% 29.72 in 10.0 mi SE 20.7 mph - N/A   Clear
1:15 AM 41.0 °F 31.9 °F 21.2 °F 45% 29.71 in 10.0 mi SE 19.6 mph - N/A   Clear
1:35 AM 41.0 °F 32.2 °F 21.2 °F 45% 29.71 in 10.0 mi SE 18.4 mph - N/A   Clear
2:15 AM 41.0 °F 31.4 °F 21.2 °F 45% 29.70 in 10.0 mi SE 21.9 mph 28.8 mph N/A   Clear
2:35 AM 41.0 °F 31.6 °F 21.2 °F 45% 29.70 in 10.0 mi SE 20.7 mph - N/A   Clear
2:55 AM 41.0 °F 31.9 °F 21.2 °F 45% 29.70 in 10.0 mi SE 19.6 mph - N/A   Clear
3:15 AM 41.0 °F 30.9 °F 21.2 °F 45% 29.69 in 10.0 mi SE 24.2 mph - N/A   Clear
3:35 AM 41.0 °F 31.9 °F 21.2 °F 45% 29.69 in 10.0 mi SE 19.6 mph - N/A   Clear
3:55 AM 39.2 °F 30.5 °F 21.2 °F 49% 29.69 in 10.0 mi SE 16.1 mph - N/A   Clear
4:15 AM 41.0 °F 33.1 °F 21.2 °F 45% 29.69 in 10.0 mi SE 15.0 mph - N/A   Clear
4:35 AM 41.0 °F 33.1 °F 21.2 °F 45% 29.68 in 10.0 mi ESE 15.0 mph - N/A   Clear
4:55 AM 41.0 °F 31.9 °F 21.2 °F 45% 29.68 in 10.0 mi ESE 19.6 mph - N/A   Clear
5:15 AM 41.0 °F 32.2 °F 21.2 °F 45% 29.67 in 10.0 mi ESE 18.4 mph 21.9 mph N/A   Clear
5:35 AM 39.2 °F 29.3 °F 21.2 °F 49% 29.67 in 10.0 mi ESE 20.7 mph - N/A   Clear
5:55 AM 41.0 °F 31.4 °F 21.2 °F 45% 29.66 in 10.0 mi SE 21.9 mph 31.1 mph N/A   Clear
6:15 AM 41.0 °F 32.2 °F 21.2 °F 45% 29.67 in 10.0 mi ESE 18.4 mph 25.3 mph N/A   Clear
6:35 AM 39.2 °F 29.0 °F 21.2 °F 49% 29.66 in 10.0 mi ESE 21.9 mph 26.5 mph N/A   Clear
6:55 AM 39.2 °F 29.0 °F 23.0 °F 52% 29.65 in 10.0 mi SE 21.9 mph 28.8 mph N/A   Clear
7:15 AM 39.2 °F 28.3 °F 23.0 °F 52% 29.64 in 10.0 mi ESE 25.3 mph 31.1 mph N/A   Clear
7:35 AM 39.2 °F 28.7 °F 23.0 °F 52% 29.65 in 10.0 mi SE 23.0 mph 32.2 mph N/A   Clear
7:55 AM 39.2 °F 28.0 °F 24.8 °F 56% 29.65 in 10.0 mi ESE 26.5 mph 35.7 mph N/A   Clear
8:15 AM 39.2 °F 28.5 °F 24.8 °F 56% 29.65 in 10.0 mi SE 24.2 mph 35.7 mph N/A   Clear
8:35 AM 39.2 °F 28.7 °F 26.6 °F 61% 29.65 in 10.0 mi SE 23.0 mph 32.2 mph N/A   Scattered Clouds
8:55 AM 41.0 °F 31.1 °F 26.6 °F 57% 29.65 in 10.0 mi SE 23.0 mph 29.9 mph N/A   Scattered Clouds
9:15 AM 41.0 °F 33.5 °F 28.4 °F 61% 29.67 in 10.0 mi ESE 13.8 mph 24.2 mph N/A   Scattered Clouds
9:35 AM 28.4 °F 23.3 °F 26.6 °F 93% 29.68 in 0.2 mi NNW 4.6 mph - N/A Snow Light Snow
9:55 AM 23.0 °F 15.8 °F 21.2 °F 93% 29.68 in 0.2 mi NW 5.8 mph - N/A Snow Light Snow
10:15 AM 23.0 °F 12.4 °F 21.2 °F 93% 29.68 in 0.2 mi NNW 10.4 mph - N/A Snow Light Snow
10:35 AM 23.0 °F 10.6 °F 21.2 °F 93% 29.67 in 0.2 mi NW 13.8 mph - N/A Fog Light Freezing Fog
10:55 AM 23.0 °F - 21.2 °F 93% 29.67 in - North - - N/A   Overcast
11:15 AM 23.0 °F 12.4 °F 21.2 °F 93% 29.68 in - NW 10.4 mph - N/A   Overcast
11:35 AM 23.0 °F - 21.2 °F 93% 29.68 in - North - - N/A   Overcast
12:15 PM 23.0 °F - 21.2 °F 93% 29.67 in - North - - N/A   Overcast
12:35 PM 23.0 °F - 21.2 °F 93% 29.65 in - North - - N/A   Overcast
12:55 PM 23.0 °F - 21.2 °F 93% 29.65 in - North - - N/A   Overcast
1:15 PM 23.0 °F - 21.2 °F 93% 29.63 in - North - - N/A   Overcast
1:35 PM 23.0 °F - 21.2 °F 93% 29.63 in - North - - N/A   Overcast
1:55 PM 23.0 °F - 21.2 °F 93% 29.65 in - North - - N/A   Overcast
2:15 PM 23.0 °F - 21.2 °F 93% 29.65 in - North - - N/A   Overcast
2:35 PM 23.0 °F 8.3 °F 21.2 °F 93% 29.63 in - NNW 19.6 mph 26.5 mph N/A   Overcast
2:55 PM 23.0 °F 9.2 °F 21.2 °F 93% 29.63 in - NNW 17.3 mph - N/A   Overcast
3:15 PM 23.0 °F 9.6 °F 21.2 °F 93% 29.65 in - NNW 16.1 mph - N/A   Overcast
3:35 PM 23.0 °F 9.6 °F 21.2 °F 93% 29.64 in - NW 16.1 mph - N/A   Overcast
3:55 PM - - - N/A% 29.65 in - NNW 19.6 mph - N/A   Overcast
4:15 PM - - - N/A% 29.65 in - NNW 17.3 mph - N/A   Overcast
4:35 PM - - - N/A% 29.64 in - NNW 18.4 mph - N/A   Overcast
4:55 PM - - - N/A% 29.64 in - NW 23.0 mph - N/A   Overcast
5:15 PM - - - N/A% 29.63 in - NNW 26.5 mph - N/A   Overcast
5:35 PM - - - N/A% 29.63 in - NNW 23.0 mph - N/A   Overcast
5:55 PM - - - N/A% 29.63 in - NNW 24.2 mph - N/A   Overcast
6:15 PM - - - N/A% 29.63 in - NNW 23.0 mph - N/A   Overcast
6:35 PM - - - N/A% 29.63 in - NNW 25.3 mph - N/A   Overcast
7:15 PM - - - N/A% 29.63 in - NW 27.6 mph - N/A   Overcast
7:35 PM - - - N/A% 29.62 in - NNW 27.6 mph - N/A   Overcast
8:15 PM - - - N/A% 29.64 in - NNW 25.3 mph - N/A   Overcast
8:35 PM - - - N/A% 29.62 in - NW 27.6 mph - N/A   Overcast
8:55 PM - - - N/A% 29.62 in - NW 29.9 mph - N/A   Overcast
9:15 PM - - - N/A% 29.63 in - NW 27.6 mph - N/A   Overcast
9:35 PM - - - N/A% 29.60 in - NW 29.9 mph - N/A   Overcast
9:55 PM - - - N/A% 29.61 in - NW 31.1 mph - N/A   Overcast
10:15 PM - - - N/A% 29.62 in - NW 28.8 mph - N/A   Overcast
10:35 PM - - - N/A% 29.60 in - NW 32.2 mph - N/A   Overcast